Weather in Vesenniy

Russia / Chukotka Autonomous Okrug     66°27′11″N   164°34′36″E
temp.,
°C
wind,
m/s
gust,
m/s
humid.,
%
clouds,
%
prec.,
mm/h
press.,
hPa
HPBL,
m
17 august, wed
wed1700:00+6se91673100 0.0 1009727
03:00+4ese3570100 0.0 1009177
06:00+4ese3371100 0.0 1009151
09:00+7ese4963100 0.0 1009561
12:00+8se5960100 0.0 1008724
15:00+9se5755100 0.0 1007775
18:00+9se8951100 0.0 1007873
21:00+8se61153100 0.0 1008553
18 august, thu
thu1800:00+7ese41057100 0.0 1008466
03:00+5ese226699 0.0 100724
06:00+4se227195 0.0 100837
09:00+8ese2655100 0.0 1007554
12:00+11se6746100 0.0 10061109
15:00+12sse5646100 0.0 10051149
18:00+12sse4643100 0.0 10051001
21:00+9sse2257100 0.0 100719
19 august, fri
fri1900:00+6sse336489 0.0 100927
03:00+4sse33730 0.0 101018
06:00+4se32730 0.0 101123
09:00+10se24510 0.0 1010493
12:00+13se45380 0.0 10091147
15:00+16se55320 0.0 10091674
18:00+16s34315 0.0 10081893
21:00+9s44540 0.0 101141
20 august, sat
sat2000:00+7sse33590 0.0 101223
03:00+5se33670 0.0 101215
06:00+5se326981 0.0 101325
09:00+10ese3653100 0.0 1012570
12:00+13sse7840100 0.0 10101218
15:00+15s563392 0.0 10091721
18:00+13s5642100 0.0 10101219
21:00+9s446175 0.0 101253
21 august, sun
sun2100:00+6sse348195 0.0 101448
03:00+7se237692 0.0 101469
06:00+8se227298 0.0 1014114
09:00+9se2270100 0.0 1014239
12:00+10ese2368100 0.0 1014368
15:00+13ese335616 0.0 1013815
18:00+14se445520 0.0 1013862
21:00+10ese226799 0.0 101425